[Iaude] MPEC T104: 2014 UZ224 [a=108.89,e=0.65,i=26.8,H=3.5]

mpec at si.edu mpec at si.edu
Mon Oct 10 22:48:04 EDT 2016


M.P.E.C. 2016-T104                               Issued 2016 Oct. 11, 02:44 UT
 
     The Minor Planet Electronic Circulars contain information on unusual
         minor planets and routine data on comets.  They are published
    on behalf of Division F of the International Astronomical Union by the
          Minor Planet Center, Smithsonian Astrophysical Observatory,
                          Cambridge, MA 02138, U.S.A.

             Prepared using the Tamkin Foundation Computer Network

                              MPC at CFA.HARVARD.EDU
            URL http://www.minorplanetcenter.net/    ISSN 1523-6714


                                  2014 UZ224
 
Additional Observations:
     K14UM4Z 7C2014 08 19.42458303 09 29.78 -10 17 00.6          22.8 i ET104W84
     K14UM4Z 7C2014 09 27.31120103 08 56.22 -10 29 11.5          23.6 g ET104W84
     K14UM4Z 7C2014 09 27.31256903 08 56.21 -10 29 11.2          23.5 r ET104W84
     K14UM4Z 7C2014 09 27.31393503 08 56.22 -10 29 11.3          22.9 i ET104W84
     K14UM4Z 7C2014 10 28.34163203 07 55.24 -10 37 22.8          22.7 i ET104W84
     K14UM4Z 7C2015 01 08.14069403 05 31.64 -10 38 07.9          22.7 z ET104W84
     K14UM4Z 7C2015 11 30.25380803 07 58.72 -10 35 21.4          22.8 i ET104W84
     K14UM4Z 7C2015 12 17.19166703 07 23.66 -10 35 03.1          23.0 r ET104W84
     K14UM4Z 7C2015 12 17.19306703 07 23.66 -10 35 02.8          23.6 g ET104W84
     K14UM4Z 7C2016 01 16.11657403 06 41.95 -10 30 25.2          23.0 i ET104W84
     K14UM4Z 7C2016 07 18.41357603 11 49.06 -09 56 39.0                 ET104W84
     K14UM4Z 7C2016 07 18.41623803 11 49.06 -09 56 39.1          22.4 i ET104W84
 
Observer details:
W84 Cerro Tololo-DECam.  Observers S. Kent, R. Kron, J. Annis, C. Davis,
    A. Plazas, A. Elliott, K. Grabowski, H. Spinka, K. Bechtol, B. Nord,
    E. Buckley-Geer, R. Rosenfeld, N. MacCrann, K. Romer, C. Bonnett,
    A. Palmese, J. Smith, E. Balbinot, A. Kremin, C. Sanchez, A. Walker.
    Measurers D. Gerdes, M. Sako, S. Hamilton, C. Scheibner, L. Zullo,
    T. Khain, G. Bernstein, W. Wester, J. Annis.  4.0-m f/2.87 reflector + CCD.
 
Orbital elements:
2014 UZ224
Epoch 2016 July 31.0 TT = JDT 2457600.5                 MPC
M 320.26291              (2000.0)            P               Q
n   0.00086742     Peri.   29.55170     -0.90390587     -0.26034054
a 108.8889451      Node   131.14108     +0.24688295     -0.96547772
e   0.6513458      Incl.   26.78510     +0.34928927     +0.00869379
P  1140            H    3.5           G   0.15           U   5
Residuals in seconds of arc
140819 W84  0.1+  0.0     141021 W84  0.2+  0.0     151217 W84  0.1-  0.2+
140927 W84  0.0   0.2-    141023 W84  0.2-  0.0     160116 W84  0.1+  0.1+
140927 W84  0.1-  0.1+    141028 W84  0.2-  0.0     160718 W84  0.1+  0.1-
140927 W84  0.1+  0.1+    150108 W84  0.1+  0.1+    160718 W84  0.0   0.1-
141021 W84  0.1+  0.2-    151130 W84  0.0   0.0
141021 W84  0.1-  0.1-    151217 W84  0.1-  0.1-

Ephemeris:
2014 UZ224               a,e,i = 108.89, 0.65, 27                q = 37.965
Date    TT    R. A. (2000) Decl.     Delta      r     Elong.  Phase     V
2016 09 11    03 11 55.5 -10 11 45  91.0723 91.6052   121.7     0.5    23.2
...
2016 09 26    03 11 36.3 -10 16 31  90.8908 91.5866   133.7     0.5    23.2
...
2016 10 04    03 11 23.0 -10 18 56  90.8122 91.5767   139.6     0.4    23.2
...
2016 10 10    03 11 11.9 -10 20 39  90.7627 91.5693   143.7     0.4    23.2
2016 10 11    03 11 09.9 -10 20 55  90.7553 91.5681   144.3     0.4    23.2
2016 10 12    03 11 07.9 -10 21 12  90.7482 91.5668   144.9     0.4    23.2
...
2016 10 18    03 10 55.6 -10 22 46  90.7104 91.5594   148.3     0.3    23.2
...
2016 10 26    03 10 38.1 -10 24 39  90.6743 91.5495   151.5     0.3    23.2
...
2016 11 10    03 10 03.4 -10 27 24  90.6528 91.5309   152.3     0.3    23.2

A. U. Tomatic                (C) Copyright 2016 MPC           M.P.E.C. 2016-T104




More information about the Iaude mailing list